TimeMST,TemperatureF,Dew PointF,Humidity,Sea Level PressureIn,VisibilityMPH,Wind Direction,Wind SpeedMPH,Gust SpeedMPH,PrecipitationIn,Events,Conditions,WindDirDegrees,DateUTC
12:15 AM,30.2,17.6,60,30.43,10.0,WNW,6.9,-,N/A,,Unknown,300,2013-11-26 07:15:00
12:35 AM,30.2,17.6,60,30.43,10.0,WNW,5.8,-,N/A,,Unknown,290,2013-11-26 07:35:00
12:55 AM,30.2,17.6,60,30.43,10.0,West,6.9,-,N/A,,Unknown,260,2013-11-26 07:55:00
1:15 AM,30.2,17.6,60,30.43,10.0,West,8.1,-,N/A,,Unknown,260,2013-11-26 08:15:00
1:35 AM,32.0,17.6,55,30.42,10.0,West,8.1,-,N/A,,Unknown,280,2013-11-26 08:35:00
1:55 AM,32.0,17.6,55,30.43,10.0,West,6.9,-,N/A,,Unknown,260,2013-11-26 08:55:00
2:15 AM,30.2,17.6,60,30.43,10.0,West,5.8,-,N/A,,Unknown,260,2013-11-26 09:15:00
2:35 AM,30.2,17.6,60,30.43,10.0,SSW,9.2,-,N/A,,Unknown,210,2013-11-26 09:35:00
2:55 AM,30.2,17.6,60,30.42,10.0,SSW,11.5,-,N/A,,Unknown,210,2013-11-26 09:55:00
3:15 AM,28.4,17.6,64,30.42,10.0,SSW,11.5,-,N/A,,Unknown,210,2013-11-26 10:15:00
3:35 AM,28.4,17.6,64,30.42,10.0,SSW,10.4,-,N/A,,Unknown,200,2013-11-26 10:35:00
3:55 AM,28.4,17.6,64,30.42,10.0,SSW,13.8,-,N/A,,Unknown,210,2013-11-26 10:55:00
4:15 AM,28.4,17.6,64,30.42,10.0,SSW,13.8,-,N/A,,Unknown,210,2013-11-26 11:15:00
4:35 AM,28.4,17.6,64,30.41,10.0,SSW,16.1,-,N/A,,Unknown,210,2013-11-26 11:35:00
4:55 AM,28.4,17.6,64,30.42,10.0,SSW,15.0,-,N/A,,Unknown,200,2013-11-26 11:55:00
5:15 AM,28.4,17.6,64,30.42,10.0,SSW,17.3,-,N/A,,Unknown,200,2013-11-26 12:15:00
5:35 AM,28.4,17.6,64,30.42,10.0,SSW,15.0,-,N/A,,Unknown,200,2013-11-26 12:35:00
5:55 AM,28.4,17.6,64,30.42,10.0,SSW,15.0,-,N/A,,Unknown,200,2013-11-26 12:55:00
6:15 AM,28.4,17.6,64,30.42,10.0,South,12.7,-,N/A,,Unknown,190,2013-11-26 13:15:00
6:35 AM,30.2,17.6,60,30.41,10.0,South,13.8,-,N/A,,Unknown,190,2013-11-26 13:35:00
6:55 AM,30.2,17.6,60,30.42,10.0,South,12.7,-,N/A,,Unknown,190,2013-11-26 13:55:00
7:15 AM,30.2,15.8,55,30.42,10.0,South,12.7,-,N/A,,Unknown,190,2013-11-26 14:15:00
7:35 AM,30.2,15.8,55,30.42,10.0,South,12.7,-,N/A,,Unknown,190,2013-11-26 14:35:00
7:55 AM,30.2,15.8,55,30.42,10.0,South,13.8,-,N/A,,Unknown,190,2013-11-26 14:55:00
8:15 AM,30.2,15.8,55,30.42,10.0,South,11.5,-,N/A,,Unknown,180,2013-11-26 15:15:00
8:35 AM,32.0,17.6,55,30.43,10.0,South,12.7,-,N/A,,Unknown,180,2013-11-26 15:35:00
8:55 AM,32.0,17.6,55,30.43,10.0,South,13.8,-,N/A,,Unknown,170,2013-11-26 15:55:00
9:15 AM,32.0,17.6,55,30.43,10.0,SSE,12.7,-,N/A,,Unknown,160,2013-11-26 16:15:00
9:35 AM,32.0,17.6,55,30.43,10.0,South,15.0,-,N/A,,Unknown,170,2013-11-26 16:35:00
9:55 AM,32.0,17.6,55,30.43,10.0,SSE,12.7,-,N/A,,Unknown,160,2013-11-26 16:55:00
10:15 AM,32.0,17.6,55,30.43,10.0,SSE,13.8,-,N/A,,Unknown,160,2013-11-26 17:15:00
10:35 AM,33.8,19.4,56,30.43,10.0,SSE,10.4,-,N/A,,Unknown,150,2013-11-26 17:35:00
10:55 AM,33.8,19.4,56,30.42,10.0,SSE,12.7,-,N/A,,Unknown,160,2013-11-26 17:55:00
11:15 AM,33.8,19.4,56,30.42,10.0,SSE,9.2,-,N/A,,Unknown,150,2013-11-26 18:15:00
11:35 AM,35.6,17.6,48,30.41,10.0,SSE,9.2,-,N/A,,Unknown,150,2013-11-26 18:35:00
11:55 AM,35.6,19.4,52,30.40,10.0,SE,8.1,-,N/A,,Unknown,140,2013-11-26 18:55:00
12:15 PM,33.8,19.4,56,30.39,10.0,SSE,10.4,-,N/A,,Unknown,150,2013-11-26 19:15:00
12:35 PM,33.8,21.2,60,30.39,10.0,SE,9.2,-,N/A,,Unknown,140,2013-11-26 19:35:00
12:55 PM,33.8,21.2,60,30.38,10.0,SE,9.2,-,N/A,,Unknown,140,2013-11-26 19:55:00
1:15 PM,33.8,21.2,60,30.37,10.0,SSE,9.2,-,N/A,,Unknown,150,2013-11-26 20:15:00
1:35 PM,33.8,21.2,60,30.36,10.0,SE,9.2,-,N/A,,Unknown,140,2013-11-26 20:35:00
1:55 PM,33.8,21.2,60,30.36,10.0,SE,8.1,-,N/A,,Unknown,140,2013-11-26 20:55:00
2:15 PM,33.8,21.2,60,30.36,10.0,SE,8.1,-,N/A,,Unknown,140,2013-11-26 21:15:00
2:35 PM,33.8,21.2,60,30.35,10.0,SSE,9.2,-,N/A,,Unknown,150,2013-11-26 21:35:00
2:55 PM,35.6,19.4,52,30.35,10.0,SSE,8.1,-,N/A,,Unknown,150,2013-11-26 21:55:00
3:15 PM,35.6,19.4,52,30.35,10.0,SSE,10.4,-,N/A,,Unknown,160,2013-11-26 22:15:00
3:35 PM,35.6,19.4,52,30.35,10.0,SSE,12.7,-,N/A,,Unknown,160,2013-11-26 22:35:00
3:55 PM,35.6,19.4,52,30.34,10.0,South,15.0,-,N/A,,Unknown,180,2013-11-26 22:55:00
4:15 PM,35.6,19.4,52,30.34,10.0,South,12.7,-,N/A,,Unknown,170,2013-11-26 23:15:00
4:35 PM,33.8,19.4,56,30.33,10.0,SSE,12.7,-,N/A,,Unknown,160,2013-11-26 23:35:00
4:55 PM,33.8,17.6,52,30.33,10.0,SSE,12.7,-,N/A,,Unknown,160,2013-11-26 23:55:00
5:15 PM,33.8,17.6,52,30.33,10.0,SSE,13.8,-,N/A,,Unknown,160,2013-11-27 00:15:00
5:35 PM,33.8,17.6,52,30.33,10.0,SSE,15.0,-,N/A,,Unknown,160,2013-11-27 00:35:00
5:55 PM,33.8,17.6,52,30.33,10.0,South,13.8,-,N/A,,Unknown,170,2013-11-27 00:55:00
6:15 PM,33.8,17.6,52,30.32,10.0,South,13.8,-,N/A,,Unknown,170,2013-11-27 01:15:00
6:35 PM,33.8,17.6,52,30.32,10.0,South,16.1,-,N/A,,Unknown,170,2013-11-27 01:35:00
6:55 PM,33.8,17.6,52,30.32,10.0,South,16.1,-,N/A,,Unknown,170,2013-11-27 01:55:00
7:15 PM,33.8,17.6,52,30.32,10.0,SSE,15.0,-,N/A,,Unknown,160,2013-11-27 02:15:00
7:35 PM,33.8,19.4,56,30.32,10.0,SSE,17.3,-,N/A,,Unknown,160,2013-11-27 02:35:00
7:55 PM,33.8,21.2,60,30.31,10.0,SSE,15.0,-,N/A,,Unknown,160,2013-11-27 02:55:00
8:15 PM,33.8,21.2,60,30.31,10.0,SSE,16.1,20.7,N/A,,Unknown,160,2013-11-27 03:15:00
8:35 PM,33.8,21.2,60,30.30,10.0,SSE,18.4,-,N/A,,Unknown,160,2013-11-27 03:35:00
8:55 PM,32.0,21.2,64,30.30,10.0,SSE,13.8,-,N/A,,Unknown,150,2013-11-27 03:55:00
9:15 PM,32.0,21.2,64,30.30,10.0,SSE,17.3,-,N/A,,Unknown,160,2013-11-27 04:15:00
9:35 PM,32.0,19.4,60,30.29,10.0,SSE,11.5,-,N/A,,Unknown,150,2013-11-27 04:35:00
9:55 PM,32.0,17.6,55,30.29,10.0,SSE,9.2,-,N/A,,Unknown,150,2013-11-27 04:55:00
10:15 PM,32.0,19.4,60,30.29,10.0,SE,12.7,-,N/A,,Unknown,140,2013-11-27 05:15:00
10:35 PM,32.0,19.4,60,30.28,10.0,SSE,9.2,-,N/A,,Unknown,150,2013-11-27 05:35:00
10:55 PM,32.0,19.4,60,30.28,10.0,SE,9.2,-,N/A,,Unknown,140,2013-11-27 05:55:00
11:15 PM,32.0,19.4,60,30.28,10.0,SE,12.7,-,N/A,,Unknown,140,2013-11-27 06:15:00
11:35 PM,32.0,19.4,60,30.27,10.0,SE,10.4,-,N/A,,Unknown,140,2013-11-27 06:35:00
11:55 PM,32.0,21.2,64,30.26,10.0,SE,12.7,-,N/A,,Unknown,140,2013-11-27 06:55:00